W9IF-4 Weather Reports


Display with metric or nautical units.
time (UTC)temp
F
wind
direction
speed
MPH
gust
MPH
rain 1hr
in
rain 24hr
in
rain mn
in
humidity
%
barometer
mb
20150228065256 59 249 19.0 0.0 0.00 0.00 0.00 1012.7
20150228065156 59 246 18.0 0.0 0.00 0.00 0.00 1012.7
20150228065057 59 253 18.0 0.0 0.00 0.00 0.00 1012.7
20150228064956 59 248 15.0 0.0 0.00 0.00 0.00 1012.7
20150228064856 59 240 14.0 0.0 0.00 0.00 0.00 1012.6
20150228064756 59 235 19.0 0.0 0.00 0.00 0.00 1012.6
20150228064656 59 248 17.0 0.0 0.00 0.00 0.00 1012.6
20150228064556 59 255 20.0 0.0 0.00 0.00 0.00 1012.6
20150228064456 59 236 14.0 0.0 0.00 0.00 0.00 1012.6
20150228064256 59 255 21.0 0.0 0.00 0.00 0.00 1012.6
20150228064156 59 200 16.0 0.0 0.00 0.00 0.00 1012.6
20150228063956 59 233 13.0 0.0 0.00 0.00 0.00 1012.7
20150228063656 59 219 15.0 0.0 0.00 0.00 0.00 1012.6
20150228063557 59 245 15.0 0.0 0.00 0.00 0.00 1012.6
20150228063456 59 231 17.0 0.0 0.00 0.00 0.00 1012.6
20150228063356 59 240 14.0 0.0 0.00 0.00 0.00 1012.6
20150228063256 59 250 13.0 0.0 0.00 0.00 0.00 1012.6
20150228062956 59 253 13.0 0.0 0.00 0.00 0.00 1012.7
20150228062856 59 235 12.0 0.0 0.00 0.00 0.00 1012.7
20150228062656 59 240 14.0 0.0 0.00 0.00 0.00 1012.7
20150228062556 59 236 11.0 0.0 0.00 0.00 0.00 1012.6
20150228062456 59 222 17.0 0.0 0.00 0.00 0.00 1012.7
20150228062356 59 231 14.0 0.0 0.00 0.00 0.00 1012.6
20150228062256 59 229 17.0 0.0 0.00 0.00 0.00 1012.6
20150228062156 59 225 17.0 0.0 0.00 0.00 0.00 1012.7
20150228062056 59 222 19.0 0.0 0.00 0.00 0.00 1012.6
20150228061956 59 233 21.0 0.0 0.00 0.00 0.00 1012.7
20150228061756 59 226 18.0 0.0 0.00 0.00 0.00 1012.7
20150228061456 59 235 21.0 0.0 0.00 0.00 0.00 1012.7
20150228061356 59 222 17.0 0.0 0.00 0.00 0.00 1012.7
20150228061256 59 246 15.0 0.0 0.00 0.00 0.00 1012.7
20150228061156 59 225 15.0 0.0 0.00 0.00 0.00 1012.7
20150228061056 59 225 14.0 0.0 0.00 0.00 0.00 1012.6
20150228060956 59 238 18.0 0.0 0.00 0.00 0.00 1012.6
20150228060856 59 238 20.0 0.0 0.00 0.00 0.00 1012.7
20150228060756 59 235 19.0 0.0 0.00 0.00 0.00 1012.7
20150228060656 59 219 14.0 0.0 0.00 0.00 0.00 1012.7
20150228060456 59 238 16.0 0.0 0.00 0.00 0.00 1012.7
20150228060355 59 225 16.0 0.0 0.00 0.00 0.00 1012.7
20150228060256 59 231 17.0 0.0 0.00 0.00 0.00 1012.7
20150228060156 59 231 14.0 0.0 0.00 0.00 0.00 1012.7
20150228060056 59 245 13.0 0.0 0.00 0.00 0.00 1012.7
20150228055956 59 246 15.0 0.0 0.00 0.00 0.00 1012.7
20150228055856 59 249 17.0 0.0 0.00 0.00 0.00 1012.7
20150228055756 59 249 16.0 0.0 0.00 0.00 0.00 1012.7
20150228055656 59 239 16.0 0.0 0.00 0.00 0.00 1012.7
20150228055556 59 238 13.0 0.0 0.00 0.00 0.00 1012.7
20150228055456 59 263 16.0 0.0 0.00 0.00 0.00 1012.7
20150228055355 59 256 13.0 0.0 0.00 0.00 0.00 1012.7
20150228055256 59 255 17.0 0.0 0.00 0.00 0.00 1012.7
20150228055156 59 211 15.0 0.0 0.00 0.00 0.00 1012.7
20150228054956 59 240 15.0 0.0 0.00 0.00 0.00 1012.7
20150228054856 59 233 15.0 0.0 0.00 0.00 0.00 1012.7
20150228054756 59 236 11.0 0.0 0.00 0.00 0.00 1012.7
20150228054556 59 232 19.0 0.0 0.00 0.00 0.00 1012.7
20150228054456 59 242 12.0 0.0 0.00 0.00 0.00 1012.7
20150228054356 59 229 17.0 0.0 0.00 0.00 0.00 1012.7
20150228054256 59 262 15.0 0.0 0.00 0.00 0.00 1012.7
20150228054155 59 229 12.0 0.0 0.00 0.00 0.00 1012.7
20150228054055 59 229 14.0 0.0 0.00 0.00 0.00 1012.7
20150228053956 59 228 13.0 0.0 0.00 0.00 0.00 1012.6
20150228053856 59 228 16.0 0.0 0.00 0.00 0.00 1012.7
20150228053755 59 228 12.0 0.0 0.00 0.00 0.00 1012.7
20150228053656 59 228 12.0 0.0 0.00 0.00 0.00 1012.7
20150228053356 59 238 14.0 0.0 0.00 0.00 0.00 1012.6
20150228053155 59 229 10.0 0.0 0.00 0.00 0.00 1012.6
20150228053056 59 260 12.0 0.0 0.00 0.00 0.00 1012.6
20150228052855 58 229 16.0 0.0 0.00 0.00 0.00 1012.5
20150228052755 58 240 13.0 0.0 0.00 0.00 0.00 1012.6
20150228052655 59 226 14.0 0.0 0.00 0.00 0.00 1012.6
20150228052556 58 240 14.0 0.0 0.00 0.00 0.00 1012.5
20150228052355 59 233 19.0 0.0 0.00 0.00 0.00 1012.5
20150228052256 59 238 14.0 0.0 0.00 0.00 0.00 1012.4
20150228052156 59 242 16.0 0.0 0.00 0.00 0.00 1012.5
20150228052055 59 240 18.0 0.0 0.00 0.00 0.00 1012.5
20150228051955 59 245 12.0 0.0 0.00 0.00 0.00 1012.4
20150228051855 59 239 15.0 0.0 0.00 0.00 0.00 1012.5
20150228051755 59 219 13.0 0.0 0.00 0.00 0.00 1012.5
20150228051655 59 239 14.0 0.0 0.00 0.00 0.00 1012.5
20150228051556 59 253 14.0 0.0 0.00 0.00 0.00 1012.6
20150228051455 59 259 13.0 0.0 0.00 0.00 0.00 1012.5
20150228051355 59 242 19.0 0.0 0.00 0.00 0.00 1012.5
20150228051255 58 233 17.0 0.0 0.00 0.00 0.00 1012.5
20150228051155 59 218 15.0 0.0 0.00 0.00 0.00 1012.5
20150228051055 59 236 13.0 0.0 0.00 0.00 0.00 1012.5
20150228050956 58 240 12.0 0.0 0.00 0.00 0.00 1012.5
20150228050856 59 219 18.0 0.0 0.00 0.00 0.00 1012.5
20150228050755 59 236 17.0 0.0 0.00 0.00 0.00 1012.5
20150228050655 59 221 18.0 0.0 0.00 0.00 0.00 1012.5
20150228050555 58 195 13.0 0.0 0.00 0.00 0.00 1012.6
20150228050456 59 221 13.0 0.0 0.00 0.00 0.00 1012.5
20150228050355 59 236 12.0 0.0 0.00 0.00 0.00 1012.5
20150228050255 59 249 11.0 0.0 0.00 0.00 0.00 1012.6
20150228050155 59 212 14.0 0.0 0.00 0.00 0.00 1012.5
20150228050055 59 221 9.0 0.0 0.00 0.00 0.00 1012.5
20150228045956 58 259 11.0 0.0 0.00 0.00 0.00 1012.5
20150228045856 58 231 14.0 0.0 0.00 0.00 0.00 1012.4
20150228045755 58 232 12.0 0.0 0.00 0.00 0.00 1012.4
20150228045655 58 239 16.0 0.0 0.00 0.00 0.00 1012.4
20150228045555 59 235 15.0 0.0 0.00 0.00 0.00 1012.4
20150228045455 58 232 12.0 0.0 0.00 0.00 0.00 1012.4
20150228045355 58 242 13.0 0.0 0.00 0.00 0.00 1012.4
20150228045155 59 224 13.0 0.0 0.00 0.00 0.00 1012.4
20150228045056 58 246 12.0 0.0 0.00 0.00 0.00 1012.4
20150228044955 58 242 13.0 0.0 0.00 0.00 0.00 1012.4
20150228044855 58 214 10.0 0.0 0.00 0.00 0.00 1012.4
20150228044755 58 197 15.0 0.0 0.00 0.00 0.00 1012.4
20150228044655 58 228 10.0 0.0 0.00 0.00 0.00 1012.3
20150228044455 58 233 13.0 0.0 0.00 0.00 0.00 1012.3
20150228044155 58 229 10.0 0.0 0.00 0.00 0.00 1012.3
20150228043956 58 215 14.0 0.0 0.00 0.00 0.00 1012.4
20150228043855 58 231 12.0 0.0 0.00 0.00 0.00 1012.4
20150228043755 58 242 13.0 0.0 0.00 0.00 0.00 1012.4
20150228043655 58 238 11.0 0.0 0.00 0.00 0.00 1012.4
20150228043555 58 245 11.0 0.0 0.00 0.00 0.00 1012.4
20150228043255 58 249 10.0 0.0 0.00 0.00 0.00 1012.4
20150228043155 58 257 14.0 0.0 0.00 0.00 0.00 1012.4
20150228043056 58 259 17.0 0.0 0.00 0.00 0.00 1012.4
20150228042955 59 252 13.0 0.0 0.00 0.00 0.00 1012.3
20150228042855 58 250 14.0 0.0 0.00 0.00 0.00 1012.3
20150228042755 58 226 15.0 0.0 0.00 0.00 0.00 1012.3
20150228042655 58 240 10.0 0.0 0.00 0.00 0.00 1012.2
20150228042555 59 249 10.0 0.0 0.00 0.00 0.00 1012.2
20150228042455 58 252 11.0 0.0 0.00 0.00 0.00 1012.3
20150228042355 58 240 9.0 0.0 0.00 0.00 0.00 1012.3
20150228042255 58 236 8.0 0.0 0.00 0.00 0.00 1012.3
20150228042155 58 217 9.0 0.0 0.00 0.00 0.00 1012.3
20150228042055 58 205 10.0 0.0 0.00 0.00 0.00 1012.2
20150228041955 58 236 13.0 0.0 0.00 0.00 0.00 1012.2
20150228041855 58 242 8.0 0.0 0.00 0.00 0.00 1012.2
20150228041755 58 235 14.0 0.0 0.00 0.00 0.00 1012.2
20150228041655 58 231 14.0 0.0 0.00 0.00 0.00 1012.2
20150228041555 59 215 12.0 0.0 0.00 0.00 0.00 1012.2
20150228041455 58 246 14.0 0.0 0.00 0.00 0.00 1012.2
20150228041355 58 231 11.0 0.0 0.00 0.00 0.00 1012.2
20150228041255 58 238 13.0 0.0 0.00 0.00 0.00 1012.2
20150228041155 58 253 15.0 0.0 0.00 0.00 0.00 1012.2
20150228041055 58 232 14.0 0.0 0.00 0.00 0.00 1012.2
20150228040956 58 256 13.0 0.0 0.00 0.00 0.00 1012.1
20150228040855 58 236 12.0 0.0 0.00 0.00 0.00 1012.1
20150228040655 58 235 11.0 0.0 0.00 0.00 0.00 1012.1
20150228040555 58 238 12.0 0.0 0.00 0.00 0.00 1012.1
20150228040455 58 200 11.0 0.0 0.00 0.00 0.00 1012.1
20150228040355 58 252 16.0 0.0 0.00 0.00 0.00 1012.1
20150228040255 58 263 15.0 0.0 0.00 0.00 0.00 1012.1
20150228040155 58 259 15.0 0.0 0.00 0.00 0.00 1012.0
20150228040055 58 250 15.0 0.0 0.00 0.00 0.00 1012.0
20150228035956 58 235 16.0 0.0 0.00 0.00 0.00 1012.0
20150228035755 58 228 14.0 0.0 0.00 0.00 0.00 1012.0
20150228035655 59 257 17.0 0.0 0.00 0.00 0.00 1012.0
20150228035555 58 248 18.0 0.0 0.00 0.00 0.00 1012.0
20150228035455 59 256 14.0 0.0 0.00 0.00 0.00 1012.0
20150228035255 58 232 14.0 0.0 0.00 0.00 0.00 1012.0
20150228035155 58 236 11.0 0.0 0.00 0.00 0.00 1012.0
20150228035055 58 242 16.0 0.0 0.00 0.00 0.00 1012.0
20150228034955 58 238 10.0 0.0 0.00 0.00 0.00 1012.0
20150228034855 58 245 12.0 0.0 0.00 0.00 0.00 1012.0
20150228034755 58 238 13.0 0.0 0.00 0.00 0.00 1012.1
20150228034655 58 249 14.0 0.0 0.00 0.00 0.00 1012.1
20150228034555 58 257 14.0 0.0 0.00 0.00 0.00 1012.1
20150228034455 58 232 10.0 0.0 0.00 0.00 0.00 1012.0
20150228034355 59 259 10.0 0.0 0.00 0.00 0.00 1012.1
20150228034255 59 249 12.0 0.0 0.00 0.00 0.00 1012.1
20150228034155 59 256 15.0 0.0 0.00 0.00 0.00 1012.1
20150228033956 59 255 14.0 0.0 0.00 0.00 0.00 1012.0
20150228033855 58 253 16.0 0.0 0.00 0.00 0.00 1012.1
20150228033755 58 236 14.0 0.0 0.00 0.00 0.00 1012.0
20150228033655 59 253 15.0 0.0 0.00 0.00 0.00 1012.0
20150228033555 59 253 12.0 0.0 0.00 0.00 0.00 1012.0
20150228033455 58 253 15.0 0.0 0.00 0.00 0.00 1012.0
20150228033357 58 255 11.0 0.0 0.00 0.00 0.00 1012.0
20150228033255 58 248 14.0 0.0 0.00 0.00 0.00 1012.0
20150228033155 59 242 11.0 0.0 0.00 0.00 0.00 1012.1
20150228033055 59 260 12.0 0.0 0.00 0.00 0.00 1012.1
20150228032955 58 257 16.0 0.0 0.00 0.00 0.00 1012.0
20150228032855 59 259 15.0 0.0 0.00 0.00 0.00 1012.0
20150228032755 59 253 16.0 0.0 0.00 0.00 0.00 1012.0
20150228032655 59 221 15.0 0.0 0.00 0.00 0.00 1012.0
20150228032555 59 255 15.0 0.0 0.00 0.00 0.00 1012.0
20150228032455 59 252 15.0 0.0 0.00 0.00 0.00 1012.0
20150228032255 59 256 15.0 0.0 0.00 0.00 0.00 1012.0
20150228032155 59 259 17.0 0.0 0.00 0.00 0.00 1012.1
20150228032055 59 242 14.0 0.0 0.00 0.00 0.00 1012.1
20150228031955 59 243 10.0 0.0 0.00 0.00 0.00 1012.1
20150228031755 58 257 15.0 0.0 0.00 0.00 0.00 1012.0
20150228031656 58 257 16.0 0.0 0.00 0.00 0.00 1012.0
20150228031455 59 248 15.0 0.0 0.00 0.00 0.00 1012.0
20150228031155 59 259 16.0 0.0 0.00 0.00 0.00 1012.0
20150228031055 58 250 16.0 0.0 0.00 0.00 0.00 1012.0
20150228030956 58 243 16.0 0.0 0.00 0.00 0.00 1012.0
20150228030855 59 257 10.0 0.0 0.00 0.00 0.00 1012.0
20150228030755 59 218 13.0 0.0 0.00 0.00 0.00 1012.0
20150228030355 59 203 14.0 0.0 0.00 0.00 0.00 1012.0
20150228030255 59 242 12.0 0.0 0.00 0.00 0.00 1012.0
20150228030155 59 253 17.0 0.0 0.00 0.00 0.00 1012.0
20150228030056 59 233 11.0 0.0 0.00 0.00 0.00 1012.1
20150228025755 59 255 20.0 0.0 0.00 0.00 0.00 1012.1
20150228025655 59 262 15.0 0.0 0.00 0.00 0.00 1012.1
20150228025555 59 242 11.0 0.0 0.00 0.00 0.00 1012.1
20150228025455 59 248 13.0 0.0 0.00 0.00 0.00 1012.1
20150228025355 59 243 14.0 0.0 0.00 0.00 0.00 1012.1